Weather History for KAUH - August, 2013

Change the Weather History Date:

Saturday, August 24, 2013

  Actual Average Record
Temperature  
Mean Temperature 82 °F -  
Max Temperature 90 °F 84 °F 98 °F (2003)
Min Temperature 73 °F 61 °F 51 °F (1985)
Cooling Degree Days 16    
Growing Degree Days 32 (Base 50)    
Moisture  
Dew Point 70 °F    
Average Humidity 71    
Maximum Humidity 91    
Minimum Humidity 51    
Precipitation  
Precipitation 0.01 in - - ()
Sea Level Pressure  
Sea Level Pressure 30.01 in    
Wind  
Wind Speed 14 mph (South)    
Max Wind Speed 21 mph    
Max Gust Speed 29 mph    
Visibility 10 miles    
Events      
Averages and records for this station are not official NWS values.
T = Trace of Precipitation, MM = Missing Value Source: NWS Daily Summary

Daily Weather History Graph

Daily Weather History Graph

Search for Another Location

Airport or City:

Trip Planner

Search our weather history database for the weather conditions in past years. The results will help you decide how hot, cold, wet, or windy it might be!

Date:

Astronomy

Aug. 24, 2013 Rise Set
Actual Time 6:51 AM CDT 8:16 PM CDT
Civil Twilight 6:22 AM CDT 8:45 PM CDT
Nautical Twilight 5:47 AM CDT 9:19 PM CDT
Astronomical Twilight 5:11 AM CDT 9:55 PM CDT
Moon 10:09 PM CDT (8/24) 10:54 AM CDT (8/24)
Length of Visible Light 14h 22m
Length of Day
13h 25m
Waning Gibbous, 84% of the Moon is Illuminated
Aug 24
Waning Gibbous
Aug 28
Last Quarter
Sep 5
New
Sep 12
First Quarter
Sep 19
Full

Hourly Weather History & Observations

Time (CDT) Temp. Heat Index Dew Point Humidity Pressure Visibility Wind Dir Wind Speed Gust Speed Precip Events Conditions
12:15 AM 77.0 °F - 70.3 °F 80% 29.99 in 10.0 mi South 15.0 mph 19.6 mph N/A   Clear
12:35 AM 76.5 °F - 70.5 °F 82% 29.99 in 10.0 mi SSE 12.7 mph 19.6 mph N/A   Clear
12:55 AM 76.3 °F - 70.7 °F 83% 29.99 in 10.0 mi South 12.7 mph 18.4 mph N/A   Clear
1:15 AM 76.1 °F - 70.9 °F 84% 29.99 in 10.0 mi South 15.0 mph 19.6 mph N/A   Clear
1:35 AM 75.7 °F - 71.1 °F 85% 29.99 in 10.0 mi SSE 11.5 mph 17.3 mph N/A   Clear
1:55 AM 75.7 °F - 71.2 °F 86% 30.00 in 10.0 mi South 11.5 mph 18.4 mph N/A   Clear
2:15 AM 75.4 °F - 71.2 °F 87% 29.99 in 10.0 mi SSE 11.5 mph - N/A   Scattered Clouds
2:35 AM 75.2 °F - 71.2 °F 87% 30.00 in 10.0 mi South 11.5 mph 17.3 mph N/A   Scattered Clouds
2:55 AM 75.2 °F - 71.2 °F 87% 30.00 in 10.0 mi South 12.7 mph 16.1 mph N/A   Clear
3:15 AM 74.8 °F - 71.2 °F 88% 30.00 in 10.0 mi South 12.7 mph 18.4 mph N/A   Clear
3:35 AM 74.5 °F - 71.2 °F 90% 30.00 in 10.0 mi South 11.5 mph - N/A   Clear
3:55 AM 74.3 °F - 71.1 °F 90% 30.00 in 10.0 mi South 12.7 mph 21.9 mph N/A   Clear
4:15 AM 74.3 °F - 70.7 °F 88% 30.00 in 10.0 mi South 15.0 mph 18.4 mph N/A   Clear
4:35 AM 73.9 °F - 70.7 °F 90% 30.00 in 10.0 mi South 12.7 mph - N/A   Clear
4:55 AM 73.6 °F - 70.7 °F 91% 30.00 in 10.0 mi South 12.7 mph - N/A   Scattered Clouds
5:15 AM 73.6 °F - 70.7 °F 91% 30.00 in 10.0 mi South 11.5 mph - N/A   Mostly Cloudy
5:35 AM 73.8 °F - 70.7 °F 90% 30.00 in 10.0 mi South 12.7 mph - N/A   Scattered Clouds
5:55 AM 73.6 °F - 70.3 °F 90% 30.00 in 10.0 mi South 10.4 mph - N/A   Clear
6:15 AM 73.4 °F - 70.2 °F 90% 30.01 in 10.0 mi South 11.5 mph - N/A   Clear
6:35 AM 73.4 °F - 70.0 °F 89% 30.01 in 10.0 mi South 11.5 mph 18.4 mph N/A   Scattered Clouds
6:55 AM 73.6 °F - 69.8 °F 88% 30.01 in 10.0 mi South 12.7 mph 19.6 mph N/A   Scattered Clouds
7:15 AM 73.4 °F - 69.8 °F 88% 30.01 in 10.0 mi South 11.5 mph 19.6 mph N/A   Clear
7:35 AM 73.4 °F - 69.4 °F 87% 30.01 in 10.0 mi South 13.8 mph 19.6 mph N/A   Clear
7:55 AM 73.8 °F - 69.3 °F 86% 30.01 in 10.0 mi South 13.8 mph 19.6 mph N/A   Clear
8:15 AM 74.3 °F - 69.3 °F 84% 30.01 in 10.0 mi South 15.0 mph 19.6 mph N/A   Clear
8:35 AM 75.2 °F - 69.3 °F 82% 30.02 in 10.0 mi South 16.1 mph 20.7 mph N/A   Clear
8:55 AM 76.1 °F - 69.3 °F 79% 30.02 in 10.0 mi South 15.0 mph 21.9 mph N/A   Clear
9:15 AM 77.4 °F - 69.3 °F 76% 30.03 in 10.0 mi South 15.0 mph 21.9 mph N/A   Clear
9:35 AM 78.3 °F - 69.6 °F 75% 30.03 in 10.0 mi South 13.8 mph 21.9 mph N/A   Clear
9:55 AM 79.5 °F - 69.8 °F 72% 30.03 in 10.0 mi South 12.7 mph 20.7 mph N/A   Clear
10:15 AM 80.1 °F 83.3 °F 70.2 °F 72% 30.03 in 10.0 mi South 13.8 mph 21.9 mph N/A   Clear
10:35 AM 81.5 °F 85.3 °F 70.3 °F 69% 30.03 in 10.0 mi South 15.0 mph 21.9 mph N/A   Clear
10:55 AM 81.9 °F 85.8 °F 70.3 °F 68% 30.04 in 10.0 mi South 15.0 mph 20.7 mph N/A   Clear
11:15 AM 82.9 °F 87.2 °F 70.3 °F 66% 30.04 in 10.0 mi South 11.5 mph 21.9 mph N/A   Clear
11:35 AM 83.8 °F 88.1 °F 69.8 °F 63% 30.04 in 10.0 mi South 12.7 mph - N/A   Clear
11:55 AM 84.9 °F 89.7 °F 70.5 °F 62% 30.04 in 10.0 mi South 15.0 mph 19.6 mph N/A   Clear
12:15 PM 85.5 °F 90.1 °F 70.0 °F 60% 30.04 in 10.0 mi South 13.8 mph - N/A   Clear
12:35 PM 86.2 °F 91.1 °F 70.3 °F 59% 30.03 in 10.0 mi South 15.0 mph 21.9 mph N/A   Clear
12:55 PM 86.9 °F 92.1 °F 70.7 °F 58% 30.03 in 10.0 mi South 13.8 mph 20.7 mph N/A   Clear
1:15 PM 87.8 °F 93.4 °F 70.9 °F 57% 30.02 in 10.0 mi South 16.1 mph 20.7 mph N/A   Clear
1:35 PM 88.2 °F 93.7 °F 70.9 °F 56% 30.02 in 10.0 mi South 15.0 mph 21.9 mph N/A   Clear
1:55 PM 89.1 °F 95.0 °F 70.9 °F 55% 30.02 in 10.0 mi South 15.0 mph 23.0 mph N/A   Clear
2:15 PM 89.6 °F 96.2 °F 71.6 °F 55% 30.02 in 10.0 mi South 17.3 mph 21.9 mph N/A   Clear
2:35 PM 90.1 °F 97.3 °F 72.1 °F 55% 30.02 in 10.0 mi South 13.8 mph 20.7 mph N/A   Clear
2:55 PM 90.7 °F 97.9 °F 72.1 °F 54% 30.01 in 10.0 mi South 15.0 mph - N/A   Clear
3:15 PM 90.5 °F 97.0 °F 71.2 °F 53% 30.01 in 10.0 mi South 15.0 mph 23.0 mph N/A   Clear
3:35 PM 90.3 °F 96.7 °F 70.9 °F 53% 30.00 in 10.0 mi South 15.0 mph 25.3 mph N/A   Clear
3:55 PM 90.7 °F 96.9 °F 70.7 °F 52% 29.99 in 10.0 mi SSE 16.1 mph 23.0 mph N/A   Clear
4:15 PM 90.7 °F 96.4 °F 70.3 °F 51% 29.99 in 10.0 mi South 20.7 mph 28.8 mph N/A   Clear
4:35 PM 90.5 °F 97.0 °F 71.2 °F 53% 29.99 in 10.0 mi South 15.0 mph 23.0 mph N/A   Clear
4:55 PM 90.7 °F 96.4 °F 70.5 °F 51% 29.99 in 10.0 mi South 18.4 mph 24.2 mph N/A   Clear
5:15 PM 90.5 °F 96.5 °F 70.5 °F 52% 29.99 in 10.0 mi SSE 12.7 mph 21.9 mph N/A   Clear
5:35 PM 90.0 °F 95.9 °F 70.7 °F 53% 29.99 in 10.0 mi SSE 16.1 mph 24.2 mph N/A   Clear
5:55 PM 89.6 °F 95.2 °F 70.3 °F 53% 29.99 in 10.0 mi SSE 16.1 mph 21.9 mph N/A   Clear
6:15 PM 89.2 °F 94.5 °F 70.3 °F 53% 29.98 in 10.0 mi South 15.0 mph 23.0 mph N/A   Clear
6:35 PM 88.5 °F 93.5 °F 70.2 °F 54% 29.99 in 10.0 mi South 12.7 mph 23.0 mph N/A   Clear
6:55 PM 87.8 °F 92.6 °F 69.6 °F 55% 29.98 in 10.0 mi South 15.0 mph 19.6 mph N/A   Clear
7:15 PM 86.9 °F 91.0 °F 69.1 °F 55% 29.99 in 10.0 mi SSE 12.7 mph 18.4 mph N/A   Clear
7:35 PM 85.6 °F 89.7 °F 69.3 °F 58% 29.99 in 10.0 mi SSE 12.7 mph - N/A   Clear
7:55 PM 84.2 °F 88.1 °F 69.6 °F 61% 29.99 in 10.0 mi SSE 11.5 mph 16.1 mph N/A   Clear
8:15 PM 82.6 °F 86.4 °F 69.8 °F 65% 29.99 in 10.0 mi SSE 10.4 mph 17.3 mph N/A   Clear
8:35 PM 81.0 °F 84.4 °F 70.0 °F 69% 30.00 in 10.0 mi SSE 10.4 mph - N/A   Clear
8:55 PM 80.2 °F 83.5 °F 70.0 °F 71% 30.01 in 10.0 mi SSE 10.4 mph - N/A   Clear
9:15 PM 80.1 °F 83.2 °F 69.8 °F 71% 30.02 in 10.0 mi SSE 12.7 mph - N/A   Clear
9:35 PM 80.1 °F 82.9 °F 69.3 °F 69% 30.03 in 10.0 mi SSE 11.5 mph - N/A   Clear
9:55 PM 80.6 °F 83.5 °F 68.5 °F 67% 30.03 in 10.0 mi South 13.8 mph 18.4 mph N/A   Clear
10:15 PM 80.6 °F 83.4 °F 68.2 °F 66% 30.04 in 10.0 mi South 13.8 mph - N/A   Clear
10:35 PM 80.6 °F 83.4 °F 68.4 °F 66% 30.05 in 10.0 mi South 18.4 mph - N/A   Clear
10:55 PM 79.7 °F - 68.9 °F 69% 30.05 in 10.0 mi South 17.3 mph 25.3 mph N/A   Clear
11:15 PM 79.7 °F - 68.9 °F 69% 30.05 in 10.0 mi South 16.1 mph 23.0 mph N/A   Clear
11:35 PM 79.7 °F - 68.5 °F 69% 30.05 in 10.0 mi South 15.0 mph 24.2 mph N/A   Clear
11:55 PM 79.2 °F - 69.1 °F 71% 30.05 in 10.0 mi South 15.0 mph 21.9 mph N/A   Clear